User: anonymous   Login
Location: Del Oro Observatory
(38.3044°N, 104.8119°W)
Time: 15:44:31
(UTC-07:00)
Language:

Cosmos 1602 Rocket - Orbit

View from above orbital plane
View from above orbital plane
View from above satellite
View from above satellite

Ground track
Ground track

The orbit data is extracted from the following two-line orbital elements,

1 15332U 84105B   14352.45036735  .00000490  00000-0  57228-4 0  8383
2 15332 082.5354 320.1163 0022810 134.1572 342.8219 14.82905646631447
Epoch (UTC): 18 December 2014 10:48:31
Eccentricity: 0.0022810
inclination: 82.5354°
perigee height: 604 km
apogee height: 636 km
right ascension of ascending node: 320.1163°
argument of perigee: 134.1572°
revolutions per day: 14.82905646
mean anomaly at epoch: 342.8219°
orbit number at epoch: 63144

The dashed part of the orbit path shows where the satellite is in the earth's shadow,  

DLR